Roseburg, OR

3:47 AM PDT on September 20, 2019 (GMT -0700)
Roseburg Regional

Weather History for KRBG - July, 2019

Change the Weather History Date:

Friday, July 26, 2019

  Actual Average Record
Temperature  
Mean Temperature 78 °F 72 °F  
Max Temperature 93 °F 86 °F 104 °F (1998)
Min Temperature 62 °F 57 °F 45 °F (1953)
Degree Days  
Heating Degree Days 0 0  
Month to date heating degree days 8  
Since 1 June heating degree days 91  
Since 1 July heating degree days 8  
Cooling Degree Days 12 7  
Month to date cooling degree days 141  
Year to date cooling degree days 211  
Since 1 June cooling degree days 191  
Growing Degree Days 28 (Base 50)    
Moisture  
Dew Point 49 °F    
Average Humidity 40    
Maximum Humidity 65    
Minimum Humidity 22    
Precipitation  
Precipitation 0.00 in 0.01 in 1.43 in (1947)
Month to date precipitation 0.37  
Year to date precipitation 19.13  
Sea Level Pressure  
Sea Level Pressure 30.05 in    
Wind  
Wind Speed 3 mph (NNW)    
Max Wind Speed 14 mph    
Max Gust Speed 20 mph    
Visibility 10 miles    
Events      
T = Trace of Precipitation, MM = Missing Value Source: NWS Daily Summary

Daily Weather History Graph

Daily Weather History Graph

Search for Another Location

Airport or City:

Astronomy

Jul. 26, 2019 Rise Set
Actual Time 5:57 AM PDT 8:41 PM PDT
Civil Twilight 5:24 AM PDT 9:14 PM PDT
Nautical Twilight 4:42 AM PDT 9:56 PM PDT
Astronomical Twilight 3:54 AM PDT 10:44 PM PDT
Moon 1:16 AM PDT (7/26) 3:31 PM PDT (7/26)
Length of Visible Light 15h 50m
Length of Day
14h 44m
Waning Crescent, 33% of the Moon is Illuminated
Jul 26
Waning Crescent
Jul 31
New
Aug 7
First Quarter
Aug 15
Full
Aug 23
Last Quarter

Hourly Weather History & Observations

Time (PDT) Temp. Dew Point Humidity Pressure Visibility Wind Dir Wind Speed Gust Speed Precip Events Conditions
12:53 AM 70.0 °F 50.0 °F 49% 29.97 in 10.0 mi Calm Calm - N/A   Clear
1:53 AM 68.0 °F 50.0 °F 52% 29.99 in 10.0 mi Calm Calm - N/A   Clear
2:53 AM 66.9 °F 48.0 °F 51% 29.99 in 10.0 mi Calm Calm - N/A   Clear
3:53 AM 64.0 °F 51.1 °F 63% 30.00 in 10.0 mi Calm Calm - N/A   Clear
4:53 AM 64.0 °F 50.0 °F 60% 30.01 in 10.0 mi Calm Calm - N/A   Clear
5:53 AM 62.1 °F 50.0 °F 65% 30.03 in 10.0 mi Calm Calm - N/A   Clear
6:53 AM 62.1 °F 48.9 °F 62% 30.04 in 10.0 mi Calm Calm - N/A   Clear
7:53 AM 66.0 °F 48.9 °F 54% 30.05 in 10.0 mi Calm Calm - N/A   Clear
8:53 AM 71.1 °F 51.1 °F 49% 30.06 in 10.0 mi Calm Calm - N/A   Clear
9:53 AM 75.9 °F 53.1 °F 45% 30.06 in 10.0 mi Variable 4.6 mph - N/A   Clear
10:53 AM 80.1 °F 52.0 °F 38% 30.06 in 10.0 mi Variable 4.6 mph - N/A   Clear
11:53 AM 84.0 °F 48.9 °F 29% 30.06 in 10.0 mi NE 9.2 mph - N/A   Clear
12:53 PM 88.0 °F 50.0 °F 27% 30.04 in 10.0 mi North - - N/A   Clear
1:53 PM 90.0 °F 52.0 °F 27% 30.03 in 10.0 mi NNW 10.4 mph - N/A   Clear
2:53 PM 91.0 °F 50.0 °F 24% 30.02 in 10.0 mi WNW 8.1 mph - N/A   Clear
3:53 PM 93.9 °F 50.0 °F 22% 30.01 in 10.0 mi North 8.1 mph - N/A   Clear
4:53 PM 93.0 °F 50.0 °F 23% 30.01 in 10.0 mi NNW 11.5 mph 18.4 mph N/A   Clear
5:53 PM 91.9 °F 48.9 °F 23% 30.02 in 10.0 mi NNW 12.7 mph - N/A   Clear
6:53 PM 87.1 °F 48.9 °F 27% 30.04 in 10.0 mi WNW 13.8 mph 19.6 mph N/A   Clear
7:53 PM 86.0 °F 44.1 °F 23% 30.06 in 10.0 mi NW 10.4 mph - N/A   Clear
8:53 PM 81.0 °F 44.1 °F 27% 30.09 in 10.0 mi NNW 6.9 mph - N/A   Clear
9:53 PM 75.9 °F 48.9 °F 38% 30.13 in 10.0 mi North 10.4 mph - N/A   Clear
10:53 PM 73.0 °F 48.9 °F 42% 30.15 in 10.0 mi North 6.9 mph - N/A   Clear
11:53 PM 69.1 °F 50.0 °F 51% 30.17 in 10.0 mi NNE 5.8 mph - N/A   Clear